******** Week 146 almanac for PRN-1 ******** ID: 1 Health: 0 Eccentricity: 0.01128911972 Time of Applicability(s): 147456 Orbital Inclination(rad): 0.9864958542 Rate of Right Ascen(r/s): -7.691748963e-09 SQRT(A) (m 1/2): 5153.629395 Right Ascen at Week(rad): -1.534738416 Argument of Perigee(rad): 0.8817412203 Mean Anom(rad): 2.823130978 Af0(s): 0.000354980603 Af1(s/s): -1.091394e-11 week: 146 ******** Week 146 almanac for PRN-2 ******** ID: 2 Health: 0 Eccentricity: 0.0206823349 Time of Applicability(s): 147456 Orbital Inclination(rad): 0.9648403598 Rate of Right Ascen(r/s): -7.863184676e-09 SQRT(A) (m 1/2): 5153.634766 Right Ascen at Week(rad): -1.623589085 Argument of Perigee(rad): -1.452537869 Mean Anom(rad): 2.980229561 Af0(s): -0.0005132522095 Af1(s/s): 0 week: 146 ******** Week 146 almanac for PRN-3 ******** ID: 3 Health: 0 Eccentricity: 0.003859996796 Time of Applicability(s): 147456 Orbital Inclination(rad): 0.9725042716 Rate of Right Ascen(r/s): -7.954617056e-09 SQRT(A) (m 1/2): 5153.640625 Right Ascen at Week(rad): -0.499221614 Argument of Perigee(rad): 0.9717719609 Mean Anom(rad): 1.657708548 Af0(s): -7.235273437e-05 Af1(s/s): -1.455192e-11 week: 146 ******** Week 146 almanac for PRN-4 ******** ID: 4 Health: 0 Eccentricity: 0.001662731171 Time of Applicability(s): 147456 Orbital Inclination(rad): 0.9612091396 Rate of Right Ascen(r/s): -7.874613723e-09 SQRT(A) (m 1/2): 5153.606934 Right Ascen at Week(rad): 0.58162477 Argument of Perigee(rad): -3.094330991 Mean Anom(rad): -1.648375458 Af0(s): -0.0001529958862 Af1(s/s): 3.637979e-12 week: 146 ******** Week 146 almanac for PRN-5 ******** ID: 5 Health: 0 Eccentricity: 0.005877494812 Time of Applicability(s): 147456 Orbital Inclination(rad): 0.9594774191 Rate of Right Ascen(r/s): -8.091765626e-09 SQRT(A) (m 1/2): 5153.598633 Right Ascen at Week(rad): -0.5393219541 Argument of Perigee(rad): 1.012226959 Mean Anom(rad): -0.8122387079 Af0(s): -5.426455078e-05 Af1(s/s): 0 week: 146 ******** Week 146 almanac for PRN-6 ******** ID: 6 Health: 0 Eccentricity: 0.002654075623 Time of Applicability(s): 147456 Orbital Inclination(rad): 0.9858786666 Rate of Right Ascen(r/s): -7.680319916e-09 SQRT(A) (m 1/2): 5153.615234 Right Ascen at Week(rad): -1.543011276 Argument of Perigee(rad): -0.9883678654 Mean Anom(rad): -3.102868628 Af0(s): 0.0001424444458 Af1(s/s): 1.091394e-11 week: 146 ******** Week 146 almanac for PRN-7 ******** ID: 7 Health: 0 Eccentricity: 0.01545333862 Time of Applicability(s): 147456 Orbital Inclination(rad): 0.9506210769 Rate of Right Ascen(r/s): -7.897471818e-09 SQRT(A) (m 1/2): 5153.648438 Right Ascen at Week(rad): 1.600910063 Argument of Perigee(rad): -2.294207586 Mean Anom(rad): 2.158204984 Af0(s): 0.0002411757812 Af1(s/s): 3.637979e-12 week: 146 ******** Week 146 almanac for PRN-8 ******** ID: 8 Health: 0 Eccentricity: 0.007190227508 Time of Applicability(s): 147456 Orbital Inclination(rad): 0.9651879023 Rate of Right Ascen(r/s): -8.000333246e-09 SQRT(A) (m 1/2): 5153.661621 Right Ascen at Week(rad): -2.614259794 Argument of Perigee(rad): 0.08820464435 Mean Anom(rad): -1.172803214 Af0(s): -4.220576172e-05 Af1(s/s): 0 week: 146 ******** Week 146 almanac for PRN-9 ******** ID: 9 Health: 0 Eccentricity: 0.00231552124 Time of Applicability(s): 147456 Orbital Inclination(rad): 0.9542223365 Rate of Right Ascen(r/s): -7.966046103e-09 SQRT(A) (m 1/2): 5153.579102 Right Ascen at Week(rad): 0.5288529846 Argument of Perigee(rad): 1.861345621 Mean Anom(rad): -0.8306659518 Af0(s): -0.0002818741943 Af1(s/s): 0 week: 146 ******** Week 146 almanac for PRN-10 ******** ID: 10 Health: 0 Eccentricity: 0.007468223572 Time of Applicability(s): 147456 Orbital Inclination(rad): 0.9723305003 Rate of Right Ascen(r/s): -7.954617056e-09 SQRT(A) (m 1/2): 5153.626465 Right Ascen at Week(rad): -0.502018058 Argument of Perigee(rad): -2.529385266 Mean Anom(rad): 0.806807607 Af0(s): -0.0002389147583 Af1(s/s): -1.091394e-11 week: 146 ******** Week 146 almanac for PRN-11 ******** ID: 11 Health: 255 Eccentricity: 0.0002889633179 Time of Applicability(s): 147456 Orbital Inclination(rad): 0.9615986269 Rate of Right Ascen(r/s): -7.943188008e-09 SQRT(A) (m 1/2): 5153.71582 Right Ascen at Week(rad): -1.490441725 Argument of Perigee(rad): 2.869671341 Mean Anom(rad): -1.326128639 Af0(s): -5.9540271e-05 Af1(s/s): -4.001777e-11 week: 146 ******** Week 146 almanac for PRN-12 ******** ID: 12 Health: 0 Eccentricity: 0.0086145401 Time of Applicability(s): 147456 Orbital Inclination(rad): 0.9707485826 Rate of Right Ascen(r/s): -8.011762293e-09 SQRT(A) (m 1/2): 5153.5625 Right Ascen at Week(rad): 2.713549847 Argument of Perigee(rad): 1.238046084 Mean Anom(rad): 1.499237397 Af0(s): -0.0001266172852 Af1(s/s): -7.275958e-12 week: 146 ******** Week 146 almanac for PRN-13 ******** ID: 13 Health: 0 Eccentricity: 0.005801677704 Time of Applicability(s): 147456 Orbital Inclination(rad): 0.9686093985 Rate of Right Ascen(r/s): -7.783181343e-09 SQRT(A) (m 1/2): 5153.625488 Right Ascen at Week(rad): 0.6813249076 Argument of Perigee(rad): 0.9674089541 Mean Anom(rad): -1.774492198 Af0(s): 0.0001982163452 Af1(s/s): 7.275958e-12 week: 146 ******** Week 146 almanac for PRN-14 ******** ID: 14 Health: 0 Eccentricity: 0.001342773437 Time of Applicability(s): 147456 Orbital Inclination(rad): 0.954144439 Rate of Right Ascen(r/s): -8.160339911e-09 SQRT(A) (m 1/2): 5153.59082 Right Ascen at Week(rad): 2.682609574 Argument of Perigee(rad): 3.036424715 Mean Anom(rad): 1.542935626 Af0(s): -5.9540271e-05 Af1(s/s): -3.637979e-12 week: 146 ******** Week 146 almanac for PRN-15 ******** ID: 15 Health: 0 Eccentricity: 0.0139298439 Time of Applicability(s): 147456 Orbital Inclination(rad): 0.9301160681 Rate of Right Ascen(r/s): -8.217485148e-09 SQRT(A) (m 1/2): 5153.668457 Right Ascen at Week(rad): 0.4234019171 Argument of Perigee(rad): 1.071884056 Mean Anom(rad): -2.180365688 Af0(s): -7.009171143e-05 Af1(s/s): 3.637979e-12 week: 146 ******** Week 146 almanac for PRN-16 ******** ID: 16 Health: 0 Eccentricity: 0.01268959045 Time of Applicability(s): 147456 Orbital Inclination(rad): 0.97071263 Rate of Right Ascen(r/s): -8.011762293e-09 SQRT(A) (m 1/2): 5153.541016 Right Ascen at Week(rad): 2.732174456 Argument of Perigee(rad): 0.6994225852 Mean Anom(rad): -0.3566123336 Af0(s): -0.0003640246948 Af1(s/s): -3.637979e-12 week: 146 ******** Week 146 almanac for PRN-17 ******** ID: 17 Health: 0 Eccentricity: 0.01367855072 Time of Applicability(s): 147456 Orbital Inclination(rad): 0.9802400888 Rate of Right Ascen(r/s): -7.828897533e-09 SQRT(A) (m 1/2): 5153.701172 Right Ascen at Week(rad): -2.532712387 Argument of Perigee(rad): -1.504854253 Mean Anom(rad): -1.267239656 Af0(s): 0.0004469288696 Af1(s/s): 3.637979e-12 week: 146 ******** Week 146 almanac for PRN-18 ******** ID: 18 Health: 0 Eccentricity: 0.002091884613 Time of Applicability(s): 147456 Orbital Inclination(rad): 0.9702811979 Rate of Right Ascen(r/s): -7.840326581e-09 SQRT(A) (m 1/2): 5153.580566 Right Ascen at Week(rad): -1.526594386 Argument of Perigee(rad): 3.111230996 Mean Anom(rad): 3.011554826 Af0(s): 0.0002012310425 Af1(s/s): -7.275958e-12 week: 146 ******** Week 146 almanac for PRN-19 ******** ID: 19 Health: 0 Eccentricity: 0.008945941925 Time of Applicability(s): 147456 Orbital Inclination(rad): 0.9789457925 Rate of Right Ascen(r/s): -7.851755628e-09 SQRT(A) (m 1/2): 5153.635254 Right Ascen at Week(rad): -2.487813863 Argument of Perigee(rad): 1.998916284 Mean Anom(rad): 1.136184666 Af0(s): 8.667254639e-05 Af1(s/s): 3.637979e-12 week: 146 ******** Week 146 almanac for PRN-20 ******** ID: 20 Health: 0 Eccentricity: 0.005261898041 Time of Applicability(s): 147456 Orbital Inclination(rad): 0.9416149319 Rate of Right Ascen(r/s): -8.263201338e-09 SQRT(A) (m 1/2): 5153.67334 Right Ascen at Week(rad): -0.6529331552 Argument of Perigee(rad): 3.112999418 Mean Anom(rad): -2.414825814 Af0(s): 0.0004084914795 Af1(s/s): 0 week: 146 ******** Week 146 almanac for PRN-21 ******** ID: 21 Health: 0 Eccentricity: 0.02454948425 Time of Applicability(s): 147456 Orbital Inclination(rad): 0.9590879318 Rate of Right Ascen(r/s): -7.874613723e-09 SQRT(A) (m 1/2): 5153.544922 Right Ascen at Week(rad): -1.625081496 Argument of Perigee(rad): -1.019631338 Mean Anom(rad): -1.099955231 Af0(s): 0.0001236025879 Af1(s/s): 0 week: 146 ******** Week 146 almanac for PRN-22 ******** ID: 22 Health: 255 Eccentricity: 0.01277208328 Time of Applicability(s): 147456 Orbital Inclination(rad): 0.9613289819 Rate of Right Ascen(r/s): -7.874613723e-09 SQRT(A) (m 1/2): 5153.597168 Right Ascen at Week(rad): 0.6299238179 Argument of Perigee(rad): -1.875984352 Mean Anom(rad): -1.410980696 Af0(s): 0 Af1(s/s): 0 week: 146 ******** Week 146 almanac for PRN-23 ******** ID: 23 Health: 0 Eccentricity: 0.001969814301 Time of Applicability(s): 147456 Orbital Inclination(rad): 0.9673630391 Rate of Right Ascen(r/s): -7.988904198e-09 SQRT(A) (m 1/2): 5153.645996 Right Ascen at Week(rad): -0.5267576178 Argument of Perigee(rad): 2.932849927 Mean Anom(rad): 2.14290038 Af0(s): 6.029394531e-06 Af1(s/s): -3.637979e-12 week: 146 ******** Week 146 almanac for PRN-24 ******** ID: 24 Health: 0 Eccentricity: 0.01230669022 Time of Applicability(s): 147456 Orbital Inclination(rad): 0.9341008229 Rate of Right Ascen(r/s): -8.080336578e-09 SQRT(A) (m 1/2): 5153.64209 Right Ascen at Week(rad): 1.518503911 Argument of Perigee(rad): 0.8029307103 Mean Anom(rad): 3.125293735 Af0(s): 0.0002185655518 Af1(s/s): 0 week: 146 ******** Week 146 almanac for PRN-25 ******** ID: 25 Health: 0 Eccentricity: 0.01041698456 Time of Applicability(s): 147456 Orbital Inclination(rad): 0.9581291938 Rate of Right Ascen(r/s): -8.114623721e-09 SQRT(A) (m 1/2): 5153.666016 Right Ascen at Week(rad): 2.637113337 Argument of Perigee(rad): 0.9730138262 Mean Anom(rad): 1.260579423 Af0(s): 0.0002178118774 Af1(s/s): 7.275958e-12 week: 146 ******** Week 146 almanac for PRN-26 ******** ID: 26 Health: 0 Eccentricity: 0.006823539734 Time of Applicability(s): 147456 Orbital Inclination(rad): 0.938954434 Rate of Right Ascen(r/s): -8.308917528e-09 SQRT(A) (m 1/2): 5153.630371 Right Ascen at Week(rad): 2.590539643 Argument of Perigee(rad): 0.3541975123 Mean Anom(rad): 0.6110861144 Af0(s): 0.0001401834229 Af1(s/s): 3.637979e-12 week: 146 ******** Week 146 almanac for PRN-27 ******** ID: 27 Health: 0 Eccentricity: 0.01009511948 Time of Applicability(s): 147456 Orbital Inclination(rad): 0.9738644811 Rate of Right Ascen(r/s): -7.920329913e-09 SQRT(A) (m 1/2): 5153.602539 Right Ascen at Week(rad): -2.5950165 Argument of Perigee(rad): 0.6322266616 Mean Anom(rad): -1.235576584 Af0(s): 6.783068848e-05 Af1(s/s): 1.818989e-11 week: 146 ******** Week 146 almanac for PRN-29 ******** ID: 29 Health: 0 Eccentricity: 0.001787185669 Time of Applicability(s): 147456 Orbital Inclination(rad): 0.9822354622 Rate of Right Ascen(r/s): -7.806039438e-09 SQRT(A) (m 1/2): 5153.716797 Right Ascen at Week(rad): -2.519748077 Argument of Perigee(rad): 2.274975526 Mean Anom(rad): -1.117891496 Af0(s): -0.0003723151123 Af1(s/s): -3.637979e-12 week: 146 ******** Week 146 almanac for PRN-30 ******** ID: 30 Health: 0 Eccentricity: 0.005434036255 Time of Applicability(s): 147456 Orbital Inclination(rad): 0.9357905986 Rate of Right Ascen(r/s): -8.057478483e-09 SQRT(A) (m 1/2): 5153.533203 Right Ascen at Week(rad): 1.614385949 Argument of Perigee(rad): -2.750310333 Mean Anom(rad): 2.179512187 Af0(s): -0.000402462085 Af1(s/s): -3.637979e-12 week: 146 ******** Week 146 almanac for PRN-31 ******** ID: 31 Health: 0 Eccentricity: 0.01047039032 Time of Applicability(s): 147456 Orbital Inclination(rad): 0.9548575004 Rate of Right Ascen(r/s): -7.863184676e-09 SQRT(A) (m 1/2): 5153.62793 Right Ascen at Week(rad): 1.618924226 Argument of Perigee(rad): 0.3693122415 Mean Anom(rad): 1.706935624 Af0(s): -0.0001273709595 Af1(s/s): 0 week: 146 ******** Week 146 almanac for PRN-32 ******** ID: 32 Health: 0 Eccentricity: 0.005460739136 Time of Applicability(s): 147456 Orbital Inclination(rad): 0.9580752648 Rate of Right Ascen(r/s): -7.931758961e-09 SQRT(A) (m 1/2): 5153.712891 Right Ascen at Week(rad): 0.539957118 Argument of Perigee(rad): -2.368892152 Mean Anom(rad): -0.5639042209 Af0(s): -4.446678467e-05 Af1(s/s): -7.275958e-12 week: 146